M I D A S
Marine Information and Data Acquisition System
Tripno 1493 of the Zeeleeuw from 2008-05-27 06:58:41 to 2008-05-27 12:51:19
Back to CruiseResearch ActivitiesStationsMapUnderway DataData graphs

EquipmentUnitsComments
TimeDGPSUTC
LatitudeDGPSDM.mWGS84
LongitudeDGPSDM.mWGS84
SpeedMeteo Stationm/sRelative wind speed
DirectionMeteo StationdegRelative wind direction
TemperatureMeteo Stationdeg CelciusAir temperature
PressureMeteo StationPaAtmospheric pressure
HumidityMeteo Station%Relative humidity
Missing or incorrect values are displayed as -999
Metereological data collected by the RV Zeeleeuw from 2008-05-27 06:55:51 to 2008-05-27 12:55:50
                                                                                    Next 1000 lines
Time Latitude Longitude Speed Direction Temperature Pressure Humidity
2008-05-27 06:56:01 51°13.622 2°56.048 1.2 353 15.8 101020 97
2008-05-27 06:56:06 51°13.622 2°56.047 1.1 355 15.8 101020 97
2008-05-27 06:56:11 51°13.622 2°56.047 2.4 348 15.8 101020 97
2008-05-27 06:56:16 51°13.622 2°56.047 2.2 348 15.8 101010 97
2008-05-27 06:56:21 51°13.622 2°56.047 2.8 348 15.8 101010 97
2008-05-27 06:56:26 51°13.621 2°56.047 3.1 348 15.8 101020 97
2008-05-27 06:56:31 51°13.621 2°56.047 2.9 352 15.8 101020 97
2008-05-27 06:56:36 51°13.621 2°56.048 2.5 350 15.9 101010 97
2008-05-27 06:56:41 51°13.621 2°56.048 2.9 350 15.9 101010 97
2008-05-27 06:56:46 51°13.622 2°56.048 2.7 349 15.8 101020 97
2008-05-27 06:56:51 51°13.622 2°56.049 2.2 349 15.8 101020 97
2008-05-27 06:56:56 51°13.622 2°56.049 2.2 348 15.8 101020 96
2008-05-27 06:57:01 51°13.622 2°56.049 2 349 15.8 101020 96
2008-05-27 06:57:06 51°13.622 2°56.049 2.8 350 15.8 101010 96
2008-05-27 06:57:11 51°13.622 2°56.049 2.3 347 15.8 101010 96
2008-05-27 06:57:16 51°13.622 2°56.049 2.1 348 15.8 101010 96
2008-05-27 06:57:21 51°13.622 2°56.049 2.2 349 15.8 101010 96
2008-05-27 06:57:26 51°13.622 2°56.049 2.2 345 15.8 101020 96
2008-05-27 06:57:31 51°13.622 2°56.049 2.1 342 15.8 101020 96
2008-05-27 06:57:36 51°13.622 2°56.049 2 341 15.8 101020 96
2008-05-27 06:57:41 51°13.622 2°56.049 1.5 331 15.8 101020 96
2008-05-27 06:57:46 51°13.622 2°56.049 1.3 324 15.8 101020 96
2008-05-27 06:57:51 51°13.622 2°56.049 1.7 353 15.8 101020 96
2008-05-27 06:57:56 51°13.622 2°56.049 1.8 352 15.8 101010 96
2008-05-27 06:58:01 51°13.622 2°56.049 2.7 350 15.8 101010 96
2008-05-27 06:58:06 51°13.621 2°56.049 2.9 348 15.8 101010 96
2008-05-27 06:58:11 51°13.621 2°56.049 2.7 347 15.8 101010 96
2008-05-27 06:58:16 51°13.621 2°56.049 3.2 345 15.8 101010 96
2008-05-27 06:58:21 51°13.621 2°56.048 2.9 346 15.8 101010 96
2008-05-27 06:58:26 51°13.621 2°56.048 2.9 347 15.8 101010 96
2008-05-27 06:58:31 51°13.621 2°56.048 2.8 347 15.8 101010 96
2008-05-27 06:58:36 51°13.621 2°56.048 3.1 349 15.8 101010 96
2008-05-27 06:58:41 51°13.621 2°56.046 2.5 349 15.8 101010 96
2008-05-27 06:58:46 51°13.622 2°56.043 2.1 348 15.8 101010 96
2008-05-27 06:58:51 51°13.623 2°56.039 1.8 351 15.8 101010 96
2008-05-27 06:58:56 51°13.624 2°56.034 1.8 355 15.8 101010 96
2008-05-27 06:59:01 51°13.625 2°56.029 1.3 359 15.8 101010 96
2008-05-27 06:59:06 51°13.627 2°56.023 1.4 1 15.8 101010 96
2008-05-27 06:59:11 51°13.629 2°56.016 1.2 3 15.8 101010 96
2008-05-27 06:59:16 51°13.631 2°56.009 1 3 15.8 101010 96
2008-05-27 06:59:21 51°13.633 2°56.002 0.8 7 15.8 101010 96
2008-05-27 06:59:26 51°13.636 2°55.994 0.8 11 15.7 101020 96
2008-05-27 06:59:31 51°13.638 2°55.986 1.1 39 15.7 101020 96
2008-05-27 06:59:36 51°13.641 2°55.977 0.9 38 15.7 101010 96
2008-05-27 06:59:41 51°13.643 2°55.969 0.7 40 15.7 101010 96
2008-05-27 06:59:46 51°13.645 2°55.96 0.7 38 15.7 101020 96
2008-05-27 06:59:51 51°13.648 2°55.951 1 34 15.7 101020 96
2008-05-27 06:59:56 51°13.651 2°55.942 1 35 15.7 101010 96
2008-05-27 07:00:01 51°13.654 2°55.932 0.7 29 15.7 101010 96
2008-05-27 07:00:06 51°13.656 2°55.923 0.8 29 15.8 101010 96
2008-05-27 07:00:11 51°13.659 2°55.913 1.2 38 15.8 101010 96
2008-05-27 07:00:16 51°13.662 2°55.904 1.2 39 15.8 101010 96
2008-05-27 07:00:21 51°13.665 2°55.895 1 40 15.8 101010 96
2008-05-27 07:00:26 51°13.667 2°55.886 1.3 45 15.8 101010 96
2008-05-27 07:00:31 51°13.67 2°55.878 1.2 36 15.8 101010 96
2008-05-27 07:00:36 51°13.672 2°55.869 1.2 35 15.8 101010 96
2008-05-27 07:00:41 51°13.674 2°55.861 1.2 45 15.8 101010 96
2008-05-27 07:00:46 51°13.676 2°55.853 1.1 45 15.8 101010 96
2008-05-27 07:00:51 51°13.678 2°55.846 0.9 44 15.8 101010 96
2008-05-27 07:00:56 51°13.68 2°55.839 0.8 27 15.8 101010 96
2008-05-27 07:01:01 51°13.682 2°55.832 0.7 39 15.8 101010 96
2008-05-27 07:01:06 51°13.683 2°55.825 0.8 40 15.8 101010 96
2008-05-27 07:01:11 51°13.685 2°55.818 0.9 40 15.8 101010 96
2008-05-27 07:01:16 51°13.686 2°55.812 1.3 22 15.8 101010 96
2008-05-27 07:01:21 51°13.688 2°55.807 1.6 59 15.8 101010 96
2008-05-27 07:01:26 51°13.689 2°55.802 1.5 35 15.8 101010 96
2008-05-27 07:01:31 51°13.69 2°55.797 1.1 24 15.8 101010 96
2008-05-27 07:01:35 51°13.691 2°55.793 1.1 20 15.8 101010 96
2008-05-27 07:01:40 51°13.691 2°55.789 1.4 23 15.8 101010 96
2008-05-27 07:01:45 51°13.692 2°55.786 1.2 24 15.8 101010 96
2008-05-27 07:01:51 51°13.693 2°55.782 1.4 11 15.8 101010 96
2008-05-27 07:01:55 51°13.694 2°55.78 1.2 12 15.8 101010 96
2008-05-27 07:02:00 51°13.694 2°55.777 1.4 10 15.8 101010 96
2008-05-27 07:02:05 51°13.695 2°55.775 1 355 15.9 101010 96
2008-05-27 07:02:10 51°13.695 2°55.773 1.7 17 15.9 101010 96
2008-05-27 07:02:15 51°13.696 2°55.771 1.9 21 15.9 101010 96
2008-05-27 07:02:20 51°13.696 2°55.77 1.8 14 15.9 101010 96
2008-05-27 07:02:26 51°13.697 2°55.769 2.1 12 15.9 101020 96
2008-05-27 07:02:31 51°13.697 2°55.768 2.1 21 15.9 101020 96
2008-05-27 07:02:36 51°13.698 2°55.768 2.1 21 15.9 101020 96
2008-05-27 07:02:41 51°13.698 2°55.768 2.9 9 15.9 101020 96
2008-05-27 07:02:46 51°13.699 2°55.768 2.7 19 15.9 101020 96
2008-05-27 07:02:51 51°13.7 2°55.769 2.2 18 15.9 101020 96
2008-05-27 07:02:56 51°13.7 2°55.769 2.3 15 15.9 101020 96
2008-05-27 07:03:01 51°13.701 2°55.769 2 13 15.9 101020 96
2008-05-27 07:03:06 51°13.702 2°55.77 2 15 15.9 101020 96
2008-05-27 07:03:11 51°13.702 2°55.77 1.7 16 15.9 101020 96
2008-05-27 07:03:16 51°13.703 2°55.77 1.8 19 15.9 101020 96
2008-05-27 07:03:21 51°13.703 2°55.77 1.6 30 15.9 101020 96
2008-05-27 07:03:26 51°13.704 2°55.77 1.7 27 15.9 101020 96
2008-05-27 07:03:31 51°13.704 2°55.77 1.8 31 15.9 101020 96
2008-05-27 07:03:36 51°13.705 2°55.769 1.6 28 15.9 101020 96
2008-05-27 07:03:41 51°13.706 2°55.769 2.2 21 15.9 101020 96
2008-05-27 07:03:46 51°13.706 2°55.769 2 17 15.9 101020 96
2008-05-27 07:03:51 51°13.706 2°55.768 1.9 21 15.9 101020 96
2008-05-27 07:03:56 51°13.706 2°55.767 1.7 23 15.9 101020 96
2008-05-27 07:04:01 51°13.706 2°55.766 1.9 28 15.9 101020 96
2008-05-27 07:04:06 51°13.706 2°55.764 2.2 29 15.9 101020 96
2008-05-27 07:04:11 51°13.705 2°55.763 2.1 20 15.9 101020 96
2008-05-27 07:04:16 51°13.705 2°55.761 1.8 26 15.9 101020 96
2008-05-27 07:04:21 51°13.704 2°55.76 1.7 28 15.9 101020 96
2008-05-27 07:04:26 51°13.704 2°55.758 1.6 28 15.9 101020 96
2008-05-27 07:04:31 51°13.704 2°55.756 2.2 22 15.9 101020 96
2008-05-27 07:04:36 51°13.703 2°55.755 2.1 23 15.9 101020 96
2008-05-27 07:04:41 51°13.702 2°55.753 2.4 15 15.9 101020 96
2008-05-27 07:04:46 51°13.702 2°55.752 2.5 8 15.9 101020 96
2008-05-27 07:04:51 51°13.701 2°55.751 2.5 17 15.9 101020 96
2008-05-27 07:04:56 51°13.701 2°55.749 3.1 21 15.9 101020 96
2008-05-27 07:05:01 51°13.7 2°55.748 2.6 24 15.9 101020 96
2008-05-27 07:05:06 51°13.699 2°55.747 2.7 22 16 101020 96
2008-05-27 07:05:11 51°13.699 2°55.746 2.9 20 16 101020 96
2008-05-27 07:05:16 51°13.698 2°55.745 2.5 23 16 101020 96
2008-05-27 07:05:21 51°13.697 2°55.744 3.3 18 16 101020 96
2008-05-27 07:05:26 51°13.696 2°55.743 2.9 25 16 101020 96
2008-05-27 07:05:31 51°13.696 2°55.742 2.9 30 16 101020 96
2008-05-27 07:05:35 51°13.695 2°55.742 2.8 30 16 101020 96
2008-05-27 07:05:40 51°13.695 2°55.741 3.1 31 16 101020 96
2008-05-27 07:05:46 51°13.694 2°55.74 3.3 31 16 101020 96
2008-05-27 07:05:51 51°13.694 2°55.739 2.9 23 16 101020 96
2008-05-27 07:05:55 51°13.694 2°55.739 2.8 17 16 101020 96
2008-05-27 07:06:00 51°13.694 2°55.738 2.7 28 16 101020 96
2008-05-27 07:06:05 51°13.694 2°55.738 2.8 27 16 101020 96
2008-05-27 07:06:10 51°13.694 2°55.737 2.5 26 16 101020 96
2008-05-27 07:06:15 51°13.693 2°55.737 2.5 22 16 101020 96
2008-05-27 07:06:20 51°13.693 2°55.736 2.2 29 16 101020 96
2008-05-27 07:06:25 51°13.693 2°55.736 2.2 26 16 101020 95
2008-05-27 07:06:30 51°13.693 2°55.735 2.7 37 16 101020 95
2008-05-27 07:06:35 51°13.693 2°55.735 2.5 36 16 101020 95
2008-05-27 07:06:39 51°13.693 2°55.735 2.3 37 16 101020 95
2008-05-27 07:06:44 51°13.693 2°55.734 2.8 32 16 101020 95
2008-05-27 07:06:49 51°13.693 2°55.734 2.6 27 16 101020 95
2008-05-27 07:06:55 51°13.692 2°55.734 2.4 24 16 101030 95
2008-05-27 07:06:59 51°13.692 2°55.733 2.5 22 16 101030 95
2008-05-27 07:07:04 51°13.692 2°55.733 2.5 24 16 101020 95
2008-05-27 07:07:09 51°13.692 2°55.732 3.3 29 16 101020 95
2008-05-27 07:07:14 51°13.692 2°55.732 2.9 33 16 101020 95
2008-05-27 07:07:19 51°13.692 2°55.731 2.6 32 16 101020 95
2008-05-27 07:07:24 51°13.692 2°55.731 2.8 25 16 101020 95
2008-05-27 07:07:29 51°13.692 2°55.73 2.6 31 16 101020 95
2008-05-27 07:07:34 51°13.692 2°55.73 2.6 30 16 101020 95
2008-05-27 07:07:39 51°13.692 2°55.729 2.7 28 16 101020 95
2008-05-27 07:07:43 51°13.692 2°55.729 2.8 28 16 101020 95
2008-05-27 07:07:48 51°13.692 2°55.728 2.6 31 16 101020 95
2008-05-27 07:07:53 51°13.692 2°55.728 2.9 32 16 101020 95
2008-05-27 07:07:58 51°13.692 2°55.727 2.7 34 16 101020 95
2008-05-27 07:08:03 51°13.692 2°55.727 2.6 34 16 101020 95
2008-05-27 07:08:08 51°13.692 2°55.726 2.9 36 16 101020 95
2008-05-27 07:08:13 51°13.692 2°55.725 2.7 36 16 101030 95
2008-05-27 07:08:18 51°13.692 2°55.725 1.9 38 16 101030 95
2008-05-27 07:08:23 51°13.692 2°55.724 2.5 38 16 101020 95
2008-05-27 07:08:28 51°13.692 2°55.724 2.6 36 16 101020 95
2008-05-27 07:08:32 51°13.692 2°55.723 2.4 38 16 101020 95
2008-05-27 07:08:38 51°13.692 2°55.723 2.1 40 16 101020 95
2008-05-27 07:08:43 51°13.693 2°55.722 2 37 16 101020 95
2008-05-27 07:08:48 51°13.693 2°55.721 2.3 39 16 101020 95
2008-05-27 07:08:52 51°13.693 2°55.721 2 20 15.9 101020 95
2008-05-27 07:08:57 51°13.694 2°55.72 2.1 42 15.9 101020 95
2008-05-27 07:09:02 51°13.695 2°55.72 1.9 40 15.9 101020 95
2008-05-27 07:09:07 51°13.698 2°55.719 1.6 41 15.9 101020 95
2008-05-27 07:09:14 51°13.704 2°55.717 1.3 41 15.9 101020 95
2008-05-27 07:09:19 51°13.709 2°55.716 0.7 42 15.9 101020 95
2008-05-27 07:09:24 51°13.715 2°55.713 0.7 2 15.9 101020 95
2008-05-27 07:09:28 51°13.719 2°55.711 2.1 11 15.9 101020 95
2008-05-27 07:09:33 51°13.725 2°55.709 2.2 10 15.9 101020 95
2008-05-27 07:09:39 51°13.732 2°55.705 1.8 20 15.9 101020 95
2008-05-27 07:09:43 51°13.737 2°55.702 1.7 19 15.9 101030 95
2008-05-27 07:09:48 51°13.743 2°55.698 2 14 15.9 101030 95
2008-05-27 07:09:52 51°13.747 2°55.695 2.2 16 15.9 101030 95
2008-05-27 07:09:58 51°13.755 2°55.69 2.2 20 15.9 101030 95
2008-05-27 07:10:03 51°13.761 2°55.685 2.1 19 15.9 101030 95
2008-05-27 07:10:08 51°13.769 2°55.679 1.3 13 15.9 101030 95
2008-05-27 07:10:13 51°13.776 2°55.673 1.3 12 16 101030 95
2008-05-27 07:10:18 51°13.784 2°55.667 1.4 1 16 101030 95
2008-05-27 07:10:23 51°13.792 2°55.662 1.6 2 16 101030 95
2008-05-27 07:10:28 51°13.8 2°55.656 1.2 5 16 101030 95
2008-05-27 07:10:32 51°13.806 2°55.651 1.3 4 16 101030 95
2008-05-27 07:10:38 51°13.815 2°55.644 1.2 5 16 101030 95
2008-05-27 07:10:43 51°13.823 2°55.639 1.3 5 16 101030 95
2008-05-27 07:10:48 51°13.83 2°55.633 0.9 2 16 101030 95
2008-05-27 07:10:52 51°13.836 2°55.628 0.9 2 15.9 101030 95
2008-05-27 07:10:57 51°13.844 2°55.622 1 9 15.9 101030 95
2008-05-27 07:11:03 51°13.853 2°55.616 1 8 16 101030 95
2008-05-27 07:11:08 51°13.86 2°55.61 0.9 3 16 101030 95
2008-05-27 07:11:13 51°13.868 2°55.605 0.9 359 15.9 101030 95
2008-05-27 07:11:18 51°13.875 2°55.599 1 359 15.9 101030 95
2008-05-27 07:11:23 51°13.882 2°55.593 1 358 15.9 101030 95
2008-05-27 07:11:27 51°13.888 2°55.589 0.9 357 15.9 101030 95
2008-05-27 07:11:32 51°13.896 2°55.584 0.9 358 16 101030 95
2008-05-27 07:11:38 51°13.905 2°55.577 0.7 357 16 101030 95
2008-05-27 07:11:43 51°13.912 2°55.572 0.7 357 15.9 101030 95
2008-05-27 07:11:48 51°13.919 2°55.566 0.8 358 15.9 101030 95
2008-05-27 07:11:54 51°13.928 2°55.56 0.9 3 16 101030 95
2008-05-27 07:11:59 51°13.935 2°55.555 0.9 6 16 101030 95
2008-05-27 07:12:04 51°13.943 2°55.55 1 6 15.9 101030 95
2008-05-27 07:12:09 51°13.95 2°55.544 1.1 7 15.9 101030 95
2008-05-27 07:12:14 51°13.957 2°55.539 1.1 8 15.9 101030 95
2008-05-27 07:12:19 51°13.965 2°55.533 0.8 13 15.9 101030 95
2008-05-27 07:12:23 51°13.971 2°55.529 0.7 13 15.9 101030 95
2008-05-27 07:12:28 51°13.978 2°55.524 0.7 13 15.9 101030 95
2008-05-27 07:12:33 51°13.986 2°55.518 0.8 13 15.9 101030 95
2008-05-27 07:12:38 51°13.993 2°55.513 0.7 13 15.9 101030 95
2008-05-27 07:12:43 51°14.001 2°55.507 0.7 13 15.9 101030 95
2008-05-27 07:12:48 51°14.009 2°55.502 0.7 13 15.9 101030 95
2008-05-27 07:12:53 51°14.017 2°55.497 0.7 13 15.9 101030 95
2008-05-27 07:12:58 51°14.025 2°55.491 0.6 15 15.9 101030 95
2008-05-27 07:13:03 51°14.032 2°55.486 0.6 17 15.9 101020 95
2008-05-27 07:13:08 51°14.04 2°55.48 0.9 32 15.9 101020 95
2008-05-27 07:13:13 51°14.048 2°55.475 0.8 32 16 101020 95
2008-05-27 07:13:18 51°14.056 2°55.469 0.4 19 16 101020 95
2008-05-27 07:13:23 51°14.064 2°55.463 0.4 19 16 101020 95
2008-05-27 07:13:27 51°14.07 2°55.458 0.2 19 16 101020 95
2008-05-27 07:13:33 51°14.08 2°55.451 0.2 19 16 101020 95
2008-05-27 07:13:38 51°14.088 2°55.445 0.4 26 16 101020 95
2008-05-27 07:13:43 51°14.096 2°55.439 0.7 28 16 101020 95
2008-05-27 07:13:48 51°14.104 2°55.434 0.8 21 16 101020 95
2008-05-27 07:13:53 51°14.112 2°55.428 0.8 19 16 101020 95
2008-05-27 07:13:59 51°14.122 2°55.421 1 19 16 101020 95
2008-05-27 07:14:04 51°14.13 2°55.415 0.9 22 16 101020 95
2008-05-27 07:14:09 51°14.138 2°55.408 0.9 23 16 101020 95
2008-05-27 07:14:15 51°14.148 2°55.401 0.9 22 16 101020 95
2008-05-27 07:14:20 51°14.156 2°55.395 0.7 19 16 101020 95
2008-05-27 07:14:26 51°14.165 2°55.386 0.7 19 16 101020 95
2008-05-27 07:14:31 51°14.173 2°55.379 0.4 19 16 101020 95
2008-05-27 07:14:36 51°14.181 2°55.372 0.3 19 16 101020 95
2008-05-27 07:14:41 51°14.189 2°55.365 0.1 19 16 101020 95
2008-05-27 07:14:46 51°14.196 2°55.357 0.1 19 16 101020 95
2008-05-27 07:14:51 51°14.203 2°55.348 0.1 19 16 101020 95
2008-05-27 07:14:56 51°14.211 2°55.339 0.1 20 16 101020 95
2008-05-27 07:15:01 51°14.217 2°55.33 0.3 40 16 101020 95
2008-05-27 07:15:06 51°14.224 2°55.32 0.4 45 16.1 101020 95
2008-05-27 07:15:11 51°14.231 2°55.31 0.4 40 16.1 101020 95
2008-05-27 07:15:16 51°14.237 2°55.299 0.5 28 16.1 101020 95
2008-05-27 07:15:21 51°14.244 2°55.289 0.3 34 16.1 101020 95
2008-05-27 07:15:26 51°14.251 2°55.277 0.3 23 16.1 101020 95
2008-05-27 07:15:31 51°14.258 2°55.265 1.3 34 16.1 101020 95
2008-05-27 07:15:36 51°14.265 2°55.253 1 25 16.1 101020 95
2008-05-27 07:15:40 51°14.271 2°55.242 1.4 32 16.1 101020 95
2008-05-27 07:15:45 51°14.28 2°55.228 1 322 16.1 101020 95
2008-05-27 07:15:50 51°14.288 2°55.214 1.9 316 16.1 101020 95
2008-05-27 07:15:55 51°14.296 2°55.198 1.6 25 16.2 101020 95
2008-05-27 07:16:00 51°14.304 2°55.183 1.4 315 16.2 101020 95
2008-05-27 07:16:05 51°14.313 2°55.167 2 323 16.2 101020 95
2008-05-27 07:16:10 51°14.321 2°55.151 1.9 318 16.2 101020 95
2008-05-27 07:16:15 51°14.33 2°55.134 1.6 26 16.2 101010 95
2008-05-27 07:16:20 51°14.338 2°55.117 2.2 34 16.2 101010 95
2008-05-27 07:16:25 51°14.347 2°55.1 1.6 317 16.2 101020 95
2008-05-27 07:16:31 51°14.358 2°55.08 1.4 321 16.2 101020 95
2008-05-27 07:16:35 51°14.366 2°55.066 1.5 328 16.2 101010 95
2008-05-27 07:16:41 51°14.379 2°55.046 1.9 331 16.2 101010 95
2008-05-27 07:16:46 51°14.391 2°55.029 1.7 333 16.2 101010 95
2008-05-27 07:16:51 51°14.402 2°55.012 2.1 336 16.2 101010 95
2008-05-27 07:16:56 51°14.414 2°54.995 1.8 334 16.2 101010 95
2008-05-27 07:17:00 51°14.424 2°54.982 1.9 346 16.2 101010 95
2008-05-27 07:17:06 51°14.439 2°54.962 1.9 333 16.2 101010 95
2008-05-27 07:17:11 51°14.452 2°54.945 2.1 341 16.2 101010 95
2008-05-27 07:17:15 51°14.463 2°54.931 2.3 339 16.2 101030 95
2008-05-27 07:17:20 51°14.476 2°54.915 3 341 16.2 101030 95
2008-05-27 07:17:25 51°14.489 2°54.899 2.3 342 16.2 101020 95
2008-05-27 07:17:30 51°14.503 2°54.884 2.6 339 16.2 101020 95
2008-05-27 07:17:35 51°14.517 2°54.869 2.6 347 16.2 101020 94
2008-05-27 07:17:40 51°14.531 2°54.855 3.2 344 16.2 101020 94
2008-05-27 07:17:45 51°14.545 2°54.842 2.5 345 16.2 101010 94
2008-05-27 07:17:50 51°14.56 2°54.829 2.8 346 16.2 101010 94
2008-05-27 07:17:55 51°14.575 2°54.816 2.6 341 16.1 101020 94
2008-05-27 07:18:00 51°14.59 2°54.803 2.6 347 16.1 101020 94
2008-05-27 07:18:04 51°14.602 2°54.793 2.8 342 16.1 101020 94
2008-05-27 07:18:09 51°14.616 2°54.78 2.8 343 16.1 101020 94
2008-05-27 07:18:15 51°14.634 2°54.764 3.1 340 16.1 101020 94
2008-05-27 07:18:19 51°14.646 2°54.754 2.7 344 16.1 101020 94
2008-05-27 07:18:24 51°14.66 2°54.739 2.8 342 16.1 101020 94
2008-05-27 07:18:29 51°14.674 2°54.724 2.5 344 16.1 101020 94
2008-05-27 07:18:34 51°14.688 2°54.709 2.4 338 16.1 101030 94
2008-05-27 07:18:39 51°14.701 2°54.695 2 340 16.1 101030 94
2008-05-27 07:18:44 51°14.715 2°54.68 2.8 341 16.1 101020 94
2008-05-27 07:18:49 51°14.729 2°54.665 2.6 341 16.1 101020 94
2008-05-27 07:18:54 51°14.742 2°54.649 2.5 339 16.1 101010 94
2008-05-27 07:18:59 51°14.756 2°54.633 2 338 16.1 101010 94
2008-05-27 07:19:03 51°14.767 2°54.621 2.4 337 16 101030 94
2008-05-27 07:19:08 51°14.78 2°54.606 2.3 335 16 101030 94
2008-05-27 07:19:13 51°14.794 2°54.591 3 339 16 101020 94
2008-05-27 07:19:18 51°14.808 2°54.576 2.5 338 16 101020 94
2008-05-27 07:19:23 51°14.822 2°54.561 2.4 338 16 101010 94
2008-05-27 07:19:28 51°14.836 2°54.547 2.7 339 16 101010 94
2008-05-27 07:19:33 51°14.851 2°54.534 2.9 344 16 101020 94
2008-05-27 07:19:38 51°14.865 2°54.52 4 340 16 101020 94
2008-05-27 07:19:43 51°14.88 2°54.507 3 337 16 101020 94
2008-05-27 07:19:48 51°14.895 2°54.494 4 344 16 101020 94
2008-05-27 07:19:53 51°14.91 2°54.481 3.5 341 16 101030 94
2008-05-27 07:19:58 51°14.925 2°54.468 3.8 340 16 101030 94
2008-05-27 07:20:03 51°14.94 2°54.455 3.8 341 16 101020 94
2008-05-27 07:20:08 51°14.954 2°54.442 3.2 340 16 101020 94
2008-05-27 07:20:12 51°14.966 2°54.431 4 336 16 101030 94
2008-05-27 07:20:18 51°14.983 2°54.414 3.5 340 16 101030 94
2008-05-27 07:20:22 51°14.995 2°54.404 3.5 336 16 101030 94
2008-05-27 07:20:28 51°15.012 2°54.387 4 337 16 101030 94
2008-05-27 07:20:32 51°15.023 2°54.375 3.8 340 16 101030 94
2008-05-27 07:20:38 51°15.04 2°54.358 3.7 341 16 101030 94
2008-05-27 07:20:43 51°15.054 2°54.344 3.5 343 16 101030 94
2008-05-27 07:20:47 51°15.066 2°54.332 3.3 343 16 101030 94
2008-05-27 07:20:52 51°15.081 2°54.319 3.4 341 16 101020 94
2008-05-27 07:20:58 51°15.097 2°54.302 4 340 16 101020 94
2008-05-27 07:21:03 51°15.112 2°54.288 3.1 336 15.9 101020 94
2008-05-27 07:21:07 51°15.123 2°54.276 4.5 342 15.9 101020 94
2008-05-27 07:21:12 51°15.137 2°54.262 3.5 336 15.9 101030 94
2008-05-27 07:21:18 51°15.155 2°54.246 3 338 15.9 101030 94
2008-05-27 07:21:23 51°15.169 2°54.232 3.6 337 15.9 101020 94
2008-05-27 07:21:27 51°15.181 2°54.222 3 337 15.9 101020 94
2008-05-27 07:21:32 51°15.195 2°54.21 3.8 340 15.9 101030 94
2008-05-27 07:21:38 51°15.213 2°54.194 3 343 15.9 101030 94
2008-05-27 07:21:43 51°15.228 2°54.182 3.7 341 15.9 101040 94
2008-05-27 07:21:48 51°15.243 2°54.169 3.8 340 15.9 101040 94
2008-05-27 07:21:52 51°15.255 2°54.159 3.8 340 15.9 101030 94
2008-05-27 07:21:58 51°15.272 2°54.143 4.6 341 15.9 101030 94
2008-05-27 07:22:03 51°15.287 2°54.13 4.2 343 15.9 101030 94
2008-05-27 07:22:07 51°15.298 2°54.119 4.7 341 15.9 101030 94
2008-05-27 07:22:12 51°15.313 2°54.105 3.6 339 15.9 101020 94
2008-05-27 07:22:18 51°15.331 2°54.09 3.8 342 15.9 101020 94
2008-05-27 07:22:23 51°15.346 2°54.077 4 343 15.9 101030 94
2008-05-27 07:22:28 51°15.36 2°54.064 3.7 345 15.9 101030 94
2008-05-27 07:22:32 51°15.372 2°54.054 3.9 342 15.9 101020 95
2008-05-27 07:22:38 51°15.39 2°54.039 3.7 347 15.9 101020 95
2008-05-27 07:22:43 51°15.405 2°54.026 4.5 343 15.9 101040 95
2008-05-27 07:22:47 51°15.417 2°54.016 4.3 345 15.9 101040 95
2008-05-27 07:22:52 51°15.432 2°54.003 3.6 344 15.9 101030 95
2008-05-27 07:22:58 51°15.45 2°53.988 3.8 343 15.9 101030 95
2008-05-27 07:23:03 51°15.465 2°53.976 3.5 341 15.9 101020 95
2008-05-27 07:23:07 51°15.477 2°53.966 4.5 346 15.9 101020 95
2008-05-27 07:23:12 51°15.492 2°53.954 3.5 344 15.9 101020 95
2008-05-27 07:23:18 51°15.51 2°53.939 3.5 346 15.9 101020 95
2008-05-27 07:23:23 51°15.526 2°53.927 4 346 15.9 101030 95
2008-05-27 07:23:27 51°15.537 2°53.917 3.5 346 15.9 101030 95
2008-05-27 07:23:32 51°15.553 2°53.904 4.5 344 15.9 101030 95
2008-05-27 07:23:38 51°15.571 2°53.89 3.4 342 15.9 101030 95
2008-05-27 07:23:43 51°15.586 2°53.878 3.9 347 15.9 101030 95
2008-05-27 07:23:48 51°15.601 2°53.865 3.7 342 15.9 101030 95
2008-05-27 07:23:52 51°15.613 2°53.855 3.7 343 15.8 101030 95
2008-05-27 07:23:57 51°15.628 2°53.843 3.8 342 15.8 101030 95
2008-05-27 07:24:03 51°15.647 2°53.828 4.6 341 15.8 101020 95
2008-05-27 07:24:08 51°15.662 2°53.816 3.7 346 15.8 101020 95
2008-05-27 07:24:12 51°15.674 2°53.806 4 343 15.8 101030 95
2008-05-27 07:24:18 51°15.692 2°53.79 3.9 343 15.8 101030 95
2008-05-27 07:24:23 51°15.707 2°53.777 4 337 15.8 101030 95
2008-05-27 07:24:27 51°15.719 2°53.767 3.2 338 15.8 101030 95
2008-05-27 07:24:32 51°15.734 2°53.753 4.4 341 15.8 101030 95
2008-05-27 07:24:38 51°15.752 2°53.738 4.3 337 15.8 101030 95
2008-05-27 07:24:43 51°15.766 2°53.724 4.6 342 15.8 101030 95
2008-05-27 07:24:48 51°15.782 2°53.711 4.1 340 15.8 101030 95
2008-05-27 07:24:52 51°15.794 2°53.701 4.1 342 15.8 101030 95
2008-05-27 07:24:58 51°15.812 2°53.686 4.4 342 15.8 101030 95
2008-05-27 07:25:03 51°15.827 2°53.673 3.2 340 15.8 101020 95
2008-05-27 07:25:07 51°15.839 2°53.664 4.2 344 15.8 101020 95
2008-05-27 07:25:13 51°15.857 2°53.649 4.7 342 15.8 101020 95
2008-05-27 07:25:18 51°15.872 2°53.637 4.3 344 15.8 101020 95
2008-05-27 07:25:23 51°15.887 2°53.624 3.4 341 15.8 101020 95
2008-05-27 07:25:27 51°15.899 2°53.615 4.8 340 15.8 101020 95
2008-05-27 07:25:32 51°15.914 2°53.602 4.3 343 15.8 101030 95
2008-05-27 07:25:38 51°15.932 2°53.588 5.1 344 15.8 101030 95
2008-05-27 07:25:43 51°15.947 2°53.575 3 338 15.8 101020 95
2008-05-27 07:25:48 51°15.961 2°53.563 4.2 345 15.8 101020 95
2008-05-27 07:25:52 51°15.973 2°53.554 3.3 343 15.8 101030 95
2008-05-27 07:25:58 51°15.991 2°53.539 4.3 347 15.8 101030 95
2008-05-27 07:26:03 51°16.006 2°53.527 3.8 343 15.8 101030 95
2008-05-27 07:26:07 51°16.017 2°53.517 3.4 345 15.8 101030 95
2008-05-27 07:26:12 51°16.032 2°53.504 3.4 344 15.8 101040 95
2008-05-27 07:26:17 51°16.047 2°53.491 3.9 344 15.8 101040 95
2008-05-27 07:26:22 51°16.062 2°53.478 3.7 343 15.8 101030 95
2008-05-27 07:26:28 51°16.08 2°53.463 3.8 340 15.8 101030 95
2008-05-27 07:26:32 51°16.092 2°53.453 4.6 340 15.8 101030 95
2008-05-27 07:26:37 51°16.107 2°53.441 3.5 343 15.8 101030 95
2008-05-27 07:26:43 51°16.125 2°53.426 3.7 343 15.8 101030 95
2008-05-27 07:26:48 51°16.14 2°53.414 3.1 344 15.8 101030 95
2008-05-27 07:26:53 51°16.155 2°53.401 4 342 15.8 101020 95
2008-05-27 07:26:58 51°16.17 2°53.389 3.7 342 15.8 101020 95
2008-05-27 07:27:03 51°16.185 2°53.376 3.2 341 15.7 101020 95
2008-05-27 07:27:08 51°16.2 2°53.363 3.1 338 15.7 101020 95
2008-05-27 07:27:12 51°16.212 2°53.351 4.6 343 15.7 101030 95
2008-05-27 07:27:17 51°16.227 2°53.337 3.3 342 15.7 101030 95
2008-05-27 07:27:23 51°16.245 2°53.322 4 344 15.7 101030 95
2008-05-27 07:27:28 51°16.26 2°53.31 3.8 343 15.7 101030 95
2008-05-27 07:27:33 51°16.275 2°53.297 3.7 342 15.7 101030 95
2008-05-27 07:27:38 51°16.29 2°53.285 3.4 343 15.7 101030 95
2008-05-27 07:27:43 51°16.304 2°53.273 3.3 343 15.7 101020 95
2008-05-27 07:27:47 51°16.316 2°53.263 3.4 347 15.7 101020 95
2008-05-27 07:27:52 51°16.331 2°53.25 3.4 341 15.7 101010 95
2008-05-27 07:27:58 51°16.349 2°53.234 4 342 15.7 101010 95
2008-05-27 07:28:03 51°16.363 2°53.221 3 339 15.7 101030 95
2008-05-27 07:28:07 51°16.375 2°53.211 2.9 345 15.7 101030 95
2008-05-27 07:28:12 51°16.39 2°53.198 3.2 340 15.7 101030 95
2008-05-27 07:28:17 51°16.405 2°53.186 3.4 340 15.7 101030 95
2008-05-27 07:28:23 51°16.422 2°53.171 3.8 341 15.7 101030 95
2008-05-27 07:28:28 51°16.437 2°53.16 3.1 340 15.7 101030 95
2008-05-27 07:28:32 51°16.45 2°53.149 3.9 345 15.7 101040 95
2008-05-27 07:28:37 51°16.465 2°53.137 4.1 339 15.7 101040 95
2008-05-27 07:28:43 51°16.483 2°53.122 3.5 343 15.7 101030 96
2008-05-27 07:28:48 51°16.498 2°53.109 4 342 15.7 101030 96
2008-05-27 07:28:52 51°16.51 2°53.099 2.9 341 15.7 101020 96
2008-05-27 07:28:58 51°16.528 2°53.085 3.1 348 15.7 101020 96
2008-05-27 07:29:03 51°16.543 2°53.073 3.1 340 15.7 101020 96
2008-05-27 07:29:08 51°16.557 2°53.061 3.4 343 15.7 101020 96
2008-05-27 07:29:12 51°16.569 2°53.051 3.2 341 15.7 101030 96
2008-05-27 07:29:17 51°16.584 2°53.039 3.4 343 15.7 101030 96
2008-05-27 07:29:23 51°16.602 2°53.024 2.9 341 15.7 101050 96
2008-05-27 07:29:28 51°16.617 2°53.011 3.7 341 15.7 101050 96
2008-05-27 07:29:33 51°16.632 2°52.998 2.8 345 15.7 101020 96
2008-05-27 07:29:38 51°16.647 2°52.985 3.2 343 15.7 101020 96
2008-05-27 07:29:43 51°16.662 2°52.973 3.4 344 15.7 101030 95
2008-05-27 07:29:47 51°16.673 2°52.963 3.3 344 15.7 101030 95
2008-05-27 07:29:53 51°16.691 2°52.948 3.1 341 15.7 101040 96
2008-05-27 07:29:58 51°16.705 2°52.935 3.2 343 15.7 101040 96
2008-05-27 07:30:03 51°16.72 2°52.922 3.6 340 15.7 101040 96
2008-05-27 07:30:07 51°16.732 2°52.912 3.5 338 15.7 101040 96
2008-05-27 07:30:12 51°16.747 2°52.899 3.1 341 15.7 101040 96
2008-05-27 07:30:18 51°16.765 2°52.883 3.2 342 15.7 101040 96
2008-05-27 07:30:23 51°16.779 2°52.87 3.1 340 15.7 101020 96
2008-05-27 07:30:28 51°16.795 2°52.857 3 342 15.7 101020 96
2008-05-27 07:30:32 51°16.807 2°52.847 3.7 342 15.7 101030 96
2008-05-27 07:30:38 51°16.824 2°52.832 4.1 338 15.7 101030 96
2008-05-27 07:30:43 51°16.84 2°52.82 3.8 339 15.7 101040 96
2008-05-27 07:30:47 51°16.852 2°52.811 4.2 340 15.7 101040 96
2008-05-27 07:30:52 51°16.867 2°52.799 3.4 344 15.7 101030 96
2008-05-27 07:30:58 51°16.884 2°52.784 3.9 343 15.7 101030 96
2008-05-27 07:31:02 51°16.896 2°52.774 3 341 15.7 101020 96
2008-05-27 07:31:08 51°16.915 2°52.759 3.7 344 15.7 101020 96
2008-05-27 07:31:12 51°16.927 2°52.749 3 342 15.7 101020 96
2008-05-27 07:31:17 51°16.942 2°52.737 3.6 348 15.7 101020 96
2008-05-27 07:31:22 51°16.957 2°52.725 3.2 342 15.7 101020 96
2008-05-27 07:31:28 51°16.975 2°52.71 2.8 347 15.7 101020 96
2008-05-27 07:31:32 51°16.987 2°52.7 3.8 343 15.8 101040 96
2008-05-27 07:31:38 51°17.005 2°52.686 3.2 345 15.8 101040 96
2008-05-27 07:31:43 51°17.02 2°52.673 4.1 346 15.7 101040 96
2008-05-27 07:31:47 51°17.033 2°52.663 4.5 342 15.7 101040 96
2008-05-27 07:31:53 51°17.05 2°52.648 2.9 349 15.7 101050 96
2008-05-27 07:31:58 51°17.065 2°52.636 3.8 341 15.7 101050 96
2008-05-27 07:32:03 51°17.08 2°52.623 3.4 341 15.7 101020 96
2008-05-27 07:32:07 51°17.092 2°52.614 3.4 338 15.7 101020 96
2008-05-27 07:32:12 51°17.107 2°52.601 3.9 341 15.7 101020 96
2008-05-27 07:32:18 51°17.126 2°52.588 3.2 341 15.7 101020 96
2008-05-27 07:32:23 51°17.141 2°52.576 4.2 345 15.8 101040 96
2008-05-27 07:32:27 51°17.153 2°52.568 3.9 348 15.8 101040 96
2008-05-27 07:32:32 51°17.169 2°52.558 3.7 343 15.8 101040 96
2008-05-27 07:32:38 51°17.188 2°52.547 3.5 342 15.8 101040 96
2008-05-27 07:32:43 51°17.204 2°52.537 4.5 343 15.7 101040 96
2008-05-27 07:32:47 51°17.218 2°52.532 3.8 343 15.7 101040 96
2008-05-27 07:32:52 51°17.234 2°52.525 4 352 15.7 101020 96
2008-05-27 07:32:58 51°17.254 2°52.517 4.2 350 15.7 101020 96
2008-05-27 07:33:03 51°17.27 2°52.511 3.6 343 15.7 101030 96
2008-05-27 07:33:07 51°17.283 2°52.507 4.1 344 15.7 101030 96
2008-05-27 07:33:12 51°17.3 2°52.501 4 350 15.7 101020 96
2008-05-27 07:33:17 51°17.317 2°52.498 4.4 343 15.7 101020 96
2008-05-27 07:33:23 51°17.337 2°52.493 4.3 347 15.7 101030 96
2008-05-27 07:33:28 51°17.355 2°52.49 4.4 348 15.7 101030 96
2008-05-27 07:33:32 51°17.368 2°52.488 4.9 346 15.7 101040 96
2008-05-27 07:33:38 51°17.389 2°52.485 4.2 349 15.7 101040 96
2008-05-27 07:33:43 51°17.406 2°52.483 5 346 15.7 101040 96
2008-05-27 07:33:47 51°17.42 2°52.483 4.7 348 15.7 101040 96
2008-05-27 07:33:52 51°17.437 2°52.481 4.5 346 15.7 101030 96
2008-05-27 07:33:58 51°17.458 2°52.48 4.2 346 15.7 101030 96
2008-05-27 07:34:03 51°17.475 2°52.478 5 347 15.7 101030 96
2008-05-27 07:34:07 51°17.489 2°52.478 3.7 351 15.7 101030 96
2008-05-27 07:34:12 51°17.507 2°52.477 5.3 347 15.7 101020 96
2008-05-27 07:34:18 51°17.527 2°52.476 4.4 349 15.7 101020 96
2008-05-27 07:34:23 51°17.545 2°52.474 4.7 348 15.7 101040 96
2008-05-27 07:34:27 51°17.558 2°52.473 4.9 348 15.7 101040 96
2008-05-27 07:34:32 51°17.576 2°52.472 5.3 348 15.7 101040 96
2008-05-27 07:34:38 51°17.596 2°52.469 4.7 346 15.7 101040 96
2008-05-27 07:34:43 51°17.613 2°52.468 5.1 350 15.7 101030 96
2008-05-27 07:34:48 51°17.631 2°52.465 4.8 346 15.7 101030 96
2008-05-27 07:34:52 51°17.645 2°52.462 4.1 346 15.7 101030 96
2008-05-27 07:34:58 51°17.665 2°52.459 4.2 349 15.7 101030 96
2008-05-27 07:35:03 51°17.682 2°52.457 4.7 347 15.7 101030 96
2008-05-27 07:35:07 51°17.696 2°52.455 4.4 344 15.7 101030 96
2008-05-27 07:35:12 51°17.713 2°52.452 4.1 350 15.7 101030 96
2008-05-27 07:35:18 51°17.733 2°52.451 3.8 347 15.7 101030 96
2008-05-27 07:35:23 51°17.75 2°52.449 4.8 349 15.7 101040 96
2008-05-27 07:35:28 51°17.767 2°52.448 4.1 345 15.7 101040 96
2008-05-27 07:35:32 51°17.781 2°52.446 4.4 348 15.7 101030 96
2008-05-27 07:35:37 51°17.798 2°52.446 4.8 347 15.7 101030 96
2008-05-27 07:35:43 51°17.819 2°52.445 4 347 15.6 101040 96
2008-05-27 07:35:48 51°17.836 2°52.444 3.3 353 15.6 101040 96
2008-05-27 07:35:53 51°17.852 2°52.443 5.3 345 15.6 101040 96
2008-05-27 07:35:58 51°17.869 2°52.444 5 349 15.6 101040 96
2008-05-27 07:36:03 51°17.886 2°52.445 4.6 346 15.6 101050 96
2008-05-27 07:36:08 51°17.903 2°52.446 5.1 346 15.6 101050 96
2008-05-27 07:36:12 51°17.916 2°52.447 4.8 347 15.6 101050 96
2008-05-27 07:36:18 51°17.937 2°52.449 4.9 346 15.6 101050 96
2008-05-27 07:36:23 51°17.954 2°52.45 5.2 349 15.6 101030 96
2008-05-27 07:36:28 51°17.972 2°52.451 5.3 346 15.6 101030 96
2008-05-27 07:36:33 51°17.989 2°52.452 5.4 346 15.6 101030 96
2008-05-27 07:36:38 51°18.006 2°52.454 4.9 346 15.6 101030 96
2008-05-27 07:36:43 51°18.023 2°52.457 6 346 15.6 101040 96
2008-05-27 07:36:48 51°18.039 2°52.462 5.3 346 15.6 101040 96
2008-05-27 07:36:53 51°18.056 2°52.468 5.7 348 15.6 101040 96
2008-05-27 07:36:58 51°18.073 2°52.474 5.9 347 15.6 101040 96
2008-05-27 07:37:03 51°18.09 2°52.481 5.9 348 15.6 101040 96
2008-05-27 07:37:08 51°18.107 2°52.489 5.5 348 15.6 101040 96
2008-05-27 07:37:12 51°18.12 2°52.494 6.1 346 15.6 101030 96
2008-05-27 07:37:18 51°18.139 2°52.504 6.3 345 15.6 101030 96
2008-05-27 07:37:23 51°18.155 2°52.513 5.9 347 15.6 101030 96
2008-05-27 07:37:28 51°18.172 2°52.521 6.3 345 15.6 101030 96
2008-05-27 07:37:32 51°18.184 2°52.528 5.9 347 15.6 101040 96
2008-05-27 07:37:37 51°18.201 2°52.536 5.8 348 15.6 101040 96
2008-05-27 07:37:43 51°18.22 2°52.547 6.5 347 15.6 101040 96
2008-05-27 07:37:48 51°18.236 2°52.555 6.3 348 15.6 101040 96
2008-05-27 07:37:52 51°18.249 2°52.563 6.1 346 15.6 101030 96
2008-05-27 07:37:58 51°18.269 2°52.573 6.9 346 15.6 101030 96
2008-05-27 07:38:03 51°18.285 2°52.583 5.8 349 15.6 101040 96
2008-05-27 07:38:08 51°18.302 2°52.591 5.8 346 15.6 101040 96
2008-05-27 07:38:12 51°18.315 2°52.598 6.2 344 15.6 101040 96
2008-05-27 07:38:18 51°18.333 2°52.609 7.7 343 15.6 101040 96
2008-05-27 07:38:23 51°18.349 2°52.617 4.7 351 15.6 101030 96
2008-05-27 07:38:28 51°18.365 2°52.626 5.5 344 15.6 101030 96
2008-05-27 07:38:33 51°18.381 2°52.634 5.6 347 15.6 101030 97
2008-05-27 07:38:38 51°18.396 2°52.642 6.1 346 15.6 101030 97
2008-05-27 07:38:43 51°18.412 2°52.65 5.4 344 15.6 101020 97
2008-05-27 07:38:47 51°18.425 2°52.657 5.7 347 15.6 101020 97
2008-05-27 07:38:52 51°18.441 2°52.666 6.4 347 15.6 101050 97
2008-05-27 07:38:58 51°18.461 2°52.675 6.4 346 15.6 101050 97
2008-05-27 07:39:03 51°18.477 2°52.684 5.8 347 15.6 101050 97
2008-05-27 07:39:07 51°18.49 2°52.689 6.5 346 15.6 101050 97
2008-05-27 07:39:12 51°18.506 2°52.698 5.9 346 15.7 101040 97
2008-05-27 07:39:18 51°18.526 2°52.707 6.6 346 15.7 101040 97
2008-05-27 07:39:23 51°18.543 2°52.716 6.1 347 15.7 101030 97
2008-05-27 07:39:28 51°18.559 2°52.724 6.7 345 15.7 101030 97
2008-05-27 07:39:32 51°18.572 2°52.731 5.8 345 15.6 101030 97
2008-05-27 07:39:38 51°18.592 2°52.743 6.6 344 15.6 101030 97
2008-05-27 07:39:43 51°18.608 2°52.752 6.5 345 15.7 101040 97
2008-05-27 07:39:47 51°18.621 2°52.76 6.5 345 15.7 101040 97
2008-05-27 07:39:52 51°18.637 2°52.77 6.7 345 15.7 101030 97
2008-05-27 07:39:58 51°18.656 2°52.783 6.9 344 15.7 101030 97
2008-05-27 07:40:03 51°18.672 2°52.793 6.1 348 15.6 101030 97
2008-05-27 07:40:08 51°18.688 2°52.804 6.4 344 15.6 101030 97
2008-05-27 07:40:12 51°18.701 2°52.813 6 347 15.6 101020 97
2008-05-27 07:40:17 51°18.716 2°52.824 6.7 346 15.6 101020 97
2008-05-27 07:40:23 51°18.736 2°52.837 6.7 346 15.6 101030 97
2008-05-27 07:40:28 51°18.752 2°52.848 6.8 347 15.6 101030 97
2008-05-27 07:40:33 51°18.768 2°52.858 6.8 346 15.6 101030 97
2008-05-27 07:40:38 51°18.784 2°52.869 7 344 15.6 101030 97
2008-05-27 07:40:43 51°18.8 2°52.879 5.9 343 15.6 101030 97
2008-05-27 07:40:48 51°18.816 2°52.89 7 344 15.6 101030 97
2008-05-27 07:40:52 51°18.829 2°52.9 6.3 348 15.7 101030 97
2008-05-27 07:40:58 51°18.849 2°52.912 5.8 349 15.7 101030 97
2008-05-27 07:41:03 51°18.864 2°52.923 7.8 347 15.7 101030 97
2008-05-27 07:41:08 51°18.88 2°52.933 6.2 346 15.7 101030 97
2008-05-27 07:41:13 51°18.896 2°52.944 6.8 348 15.7 101040 97
2008-05-27 07:41:18 51°18.912 2°52.954 7.1 344 15.7 101040 97
2008-05-27 07:41:23 51°18.928 2°52.965 6.2 350 15.7 101050 97
2008-05-27 07:41:27 51°18.941 2°52.973 6.2 349 15.7 101050 97
2008-05-27 07:41:32 51°18.957 2°52.983 6.8 347 15.7 101020 97
2008-05-27 07:41:38 51°18.976 2°52.995 6.5 348 15.7 101020 97
2008-05-27 07:41:43 51°18.992 2°53.005 6.7 349 15.7 101030 97
2008-05-27 07:41:47 51°19.005 2°53.013 6.2 351 15.7 101030 97
2008-05-27 07:41:52 51°19.021 2°53.024 6.8 347 15.7 101050 97
2008-05-27 07:41:57 51°19.036 2°53.034 7 347 15.7 101050 97
2008-05-27 07:42:03 51°19.054 2°53.046 6.1 349 15.7 101030 97
2008-05-27 07:42:08 51°19.07 2°53.056 7.3 346 15.7 101030 97
2008-05-27 07:42:12 51°19.083 2°53.064 6.2 349 15.6 101030 97
2008-05-27 07:42:17 51°19.099 2°53.074 6.4 347 15.6 101030 97
2008-05-27 07:42:23 51°19.117 2°53.086 6.3 349 15.6 101030 97
2008-05-27 07:42:28 51°19.134 2°53.094 6.7 347 15.6 101030 97
2008-05-27 07:42:32 51°19.146 2°53.101 5.9 348 15.6 101020 97
2008-05-27 07:42:38 51°19.166 2°53.113 6.6 348 15.6 101020 97
2008-05-27 07:42:43 51°19.181 2°53.124 6.3 347 15.6 101030 97
2008-05-27 07:42:48 51°19.197 2°53.133 6.6 349 15.6 101030 97
2008-05-27 07:42:52 51°19.209 2°53.143 6.1 348 15.6 101030 97
2008-05-27 07:42:58 51°19.228 2°53.155 6.9 350 15.6 101030 97
2008-05-27 07:43:03 51°19.244 2°53.167 6.4 350 15.6 101030 98
2008-05-27 07:43:08 51°19.259 2°53.177 6.8 348 15.6 101030 98
2008-05-27 07:43:12 51°19.271 2°53.186 5 351 15.6 101030 98
2008-05-27 07:43:18 51°19.29 2°53.199 6 350 15.6 101030 98
2008-05-27 07:43:23 51°19.305 2°53.21 5.8 349 15.6 101030 98
2008-05-27 07:43:27 51°19.317 2°53.219 6.2 346 15.6 101030 98
2008-05-27 07:43:32 51°19.333 2°53.229 6.2 347 15.6 101030 98
2008-05-27 07:43:38 51°19.351 2°53.243 7.3 347 15.6 101030 98
2008-05-27 07:43:43 51°19.366 2°53.254 5.1 350 15.6 101040 98
2008-05-27 07:43:47 51°19.378 2°53.263 6.5 345 15.6 101040 98
2008-05-27 07:43:52 51°19.393 2°53.275 6 352 15.6 101050 98
2008-05-27 07:43:58 51°19.412 2°53.288 6.6 347 15.6 101050 98
2008-05-27 07:44:03 51°19.427 2°53.3 6.2 348 15.6 101020 98
2008-05-27 07:44:07 51°19.44 2°53.308 6.8 348 15.6 101020 98
2008-05-27 07:44:12 51°19.455 2°53.32 6 349 15.6 101040 98
2008-05-27 07:44:17 51°19.47 2°53.331 5.5 348 15.6 101040 98
2008-05-27 07:44:23 51°19.488 2°53.344 7.1 349 15.6 101040 98
2008-05-27 07:44:28 51°19.503 2°53.355 5.4 345 15.6 101040 98
2008-05-27 07:44:32 51°19.515 2°53.364 6.4 348 15.6 101030 98
2008-05-27 07:44:38 51°19.533 2°53.378 6.8 347 15.6 101030 98
2008-05-27 07:44:43 51°19.549 2°53.389 5.7 345 15.6 101050 98
2008-05-27 07:44:47 51°19.561 2°53.399 6 346 15.6 101050 98
2008-05-27 07:44:52 51°19.577 2°53.41 5.8 348 15.6 101030 98
2008-05-27 07:44:58 51°19.595 2°53.425 6.6 347 15.6 101030 98
2008-05-27 07:45:03 51°19.611 2°53.436 5.9 346 15.6 101040 98
2008-05-27 07:45:08 51°19.626 2°53.447 6.4 347 15.6 101040 98
2008-05-27 07:45:12 51°19.639 2°53.456 6.1 346 15.6 101030 98
2008-05-27 07:45:18 51°19.658 2°53.469 5.6 346 15.6 101030 98
2008-05-27 07:45:23 51°19.674 2°53.479 5.8 344 15.6 101040 98
2008-05-27 07:45:28 51°19.689 2°53.49 6.7 348 15.6 101040 98
2008-05-27 07:45:32 51°19.702 2°53.498 5.7 347 15.6 101040 98
2008-05-27 07:45:38 51°19.721 2°53.511 5.9 346 15.6 101040 98
2008-05-27 07:45:43 51°19.736 2°53.521 5.5 347 15.6 101040 98
2008-05-27 07:45:47 51°19.749 2°53.529 6.8 347 15.6 101040 98
2008-05-27 07:45:52 51°19.764 2°53.54 5.1 349 15.6 101020 98
2008-05-27 07:45:58 51°19.784 2°53.553 5.7 349 15.6 101020 98
2008-05-27 07:46:03 51°19.8 2°53.563 6.3 349 15.6 101030 98
2008-05-27 07:46:07 51°19.812 2°53.571 6.4 349 15.6 101030 98
2008-05-27 07:46:12 51°19.828 2°53.582 5.7 346 15.6 101030 98
2008-05-27 07:46:18 51°19.848 2°53.595 5.8 349 15.6 101030 98
2008-05-27 07:46:23 51°19.864 2°53.606 6.5 347 15.6 101040 98
2008-05-27 07:46:28 51°19.88 2°53.617 5.4 348 15.6 101040 98
2008-05-27 07:46:32 51°19.893 2°53.625 6.3 347 15.6 101040 98
2008-05-27 07:46:37 51°19.909 2°53.636 5.3 348 15.6 101040 98
2008-05-27 07:46:43 51°19.928 2°53.649 6 347 15.6 101040 98
2008-05-27 07:46:48 51°19.944 2°53.66 5 348 15.6 101040 98
2008-05-27 07:46:52 51°19.957 2°53.668 6.4 345 15.5 101040 98
2008-05-27 07:46:58 51°19.976 2°53.68 6.5 346 15.5 101040 98
2008-05-27 07:47:03 51°19.992 2°53.691 4.6 348 15.5 101050 98
2008-05-27 07:47:08 51°20.008 2°53.701 5.7 346 15.5 101050 98
2008-05-27 07:47:12 51°20.021 2°53.709 5.4 350 15.5 101040 98
2008-05-27 07:47:18 51°20.04 2°53.723 5.5 350 15.5 101040 98
2008-05-27 07:47:23 51°20.055 2°53.733 6.1 346 15.5 101030 98
2008-05-27 07:47:28 51°20.071 2°53.743 5.5 346 15.5 101030 98
2008-05-27 07:47:32 51°20.084 2°53.752 5.2 347 15.5 101040 98
2008-05-27 07:47:38 51°20.103 2°53.765 5.9 345 15.5 101040 98
2008-05-27 07:47:43 51°20.118 2°53.775 5.4 347 15.5 101050 98
2008-05-27 07:47:48 51°20.134 2°53.787 5.9 347 15.5 101050 98
2008-05-27 07:47:53 51°20.15 2°53.797 5.5 346 15.5 101030 98
2008-05-27 07:47:58 51°20.166 2°53.808 5.6 345 15.5 101030 98
2008-05-27 07:48:03 51°20.181 2°53.819 5.3 350 15.5 101040 98
2008-05-27 07:48:07 51°20.193 2°53.828 5.6 348 15.5 101040 98
2008-05-27 07:48:12 51°20.209 2°53.839 5.3 348 15.5 101040 98
2008-05-27 07:48:18 51°20.228 2°53.853 5.4 348 15.5 101040 98
2008-05-27 07:48:23 51°20.243 2°53.864 6.2 344 15.5 101040 98
2008-05-27 07:48:28 51°20.259 2°53.875 5.8 349 15.5 101040 98
2008-05-27 07:48:32 51°20.271 2°53.885 6.6 345 15.5 101040 98
2008-05-27 07:48:38 51°20.289 2°53.898 6.8 346 15.5 101040 98
2008-05-27 07:48:43 51°20.304 2°53.909 5.2 347 15.5 101050 98
2008-05-27 07:48:48 51°20.319 2°53.92 5.9 345 15.5 101050 98
2008-05-27 07:48:52 51°20.332 2°53.929 6 347 15.5 101040 98
2008-05-27 07:48:58 51°20.35 2°53.943 6.3 346 15.5 101040 98
2008-05-27 07:49:03 51°20.366 2°53.954 5.7 346 15.5 101020 98
2008-05-27 07:49:07 51°20.379 2°53.964 6.1 346 15.5 101020 98
2008-05-27 07:49:12 51°20.395 2°53.975 6.5 346 15.5 101040 98
2008-05-27 07:49:18 51°20.413 2°53.988 6.3 346 15.5 101040 98
2008-05-27 07:49:23 51°20.429 2°54 5.2 346 15.5 101040 98
2008-05-27 07:49:28 51°20.445 2°54.01 7.2 347 15.5 101040 98
2008-05-27 07:49:32 51°20.457 2°54.019 4.8 346 15.5 101040 98
2008-05-27 07:49:38 51°20.477 2°54.032 6 345 15.5 101040 98
2008-05-27 07:49:43 51°20.492 2°54.043 5.7 348 15.5 101040 98
2008-05-27 07:49:48 51°20.508 2°54.054 5.6 348 15.5 101040 98
2008-05-27 07:49:52 51°20.52 2°54.064 6.4 348 15.5 101040 98
2008-05-27 07:49:58 51°20.539 2°54.076 6.7 346 15.5 101040 98
2008-05-27 07:50:03 51°20.555 2°54.087 5.4 349 15.5 101050 98
2008-05-27 07:50:07 51°20.568 2°54.096 6.3 346 15.5 101050 98
2008-05-27 07:50:13 51°20.587 2°54.11 5.7 349 15.5 101040 98
2008-05-27 07:50:18 51°20.603 2°54.12 6 345 15.5 101040 98
2008-05-27 07:50:23 51°20.619 2°54.131 5.9 348 15.5 101030 98
2008-05-27 07:50:28 51°20.635 2°54.142 5.9 348 15.5 101030 98
2008-05-27 07:50:33 51°20.651 2°54.153 6.6 347 15.5 101050 98
2008-05-27 07:50:38 51°20.667 2°54.163 6 348 15.5 101050 98
2008-05-27 07:50:43 51°20.683 2°54.174 6.5 347 15.5 101050 98
2008-05-27 07:50:48 51°20.7 2°54.185 5.6 346 15.5 101050 98
2008-05-27 07:50:52 51°20.713 2°54.193 6.4 348 15.5 101050 98
2008-05-27 07:50:58 51°20.732 2°54.207 6.2 346 15.5 101050 98
2008-05-27 07:51:03 51°20.748 2°54.217 5.9 345 15.5 101050 98
2008-05-27 07:51:08 51°20.763 2°54.228 6.4 346 15.5 101050 98
2008-05-27 07:51:12 51°20.776 2°54.238 5.8 348 15.5 101040 98
2008-05-27 07:51:17 51°20.792 2°54.249 5.9 345 15.5 101040 98
2008-05-27 07:51:23 51°20.811 2°54.263 5.6 346 15.5 101040 98
2008-05-27 07:51:28 51°20.828 2°54.274 5.8 346 15.5 101040 98
2008-05-27 07:51:32 51°20.841 2°54.284 6 348 15.5 101020 98
2008-05-27 07:51:38 51°20.859 2°54.298 6.4 349 15.5 101020 98
2008-05-27 07:51:43 51°20.875 2°54.31 6.1 345 15.5 101040 98
2008-05-27 07:51:48 51°20.891 2°54.321 6.1 348 15.5 101040 98
2008-05-27 07:51:52 51°20.904 2°54.331 7 345 15.5 101040 98
2008-05-27 07:51:58 51°20.923 2°54.344 6.5 346 15.5 101040 98
2008-05-27 07:52:03 51°20.939 2°54.355 5.8 345 15.5 101040 98
2008-05-27 07:52:08 51°20.955 2°54.367 6.9 345 15.5 101040 98
2008-05-27 07:52:13 51°20.971 2°54.378 5.9 347 15.5 101040 98
2008-05-27 07:52:18 51°20.988 2°54.389 5.8 347 15.5 101040 98
2008-05-27 07:52:23 51°21.003 2°54.4 6.7 346 15.5 101020 98
2008-05-27 07:52:27 51°21.016 2°54.409 6.6 346 15.5 101020 98
2008-05-27 07:52:32 51°21.032 2°54.42 6.5 348 15.5 101040 98
2008-05-27 07:52:38 51°21.051 2°54.434 7.2 344 15.5 101040 98
2008-05-27 07:52:43 51°21.066 2°54.445 5.5 350 15.5 101040 98
2008-05-27 07:52:48 51°21.082 2°54.456 6.7 347 15.5 101040 98
2008-05-27 07:52:52 51°21.095 2°54.465 5.2 344 15.5 101030 98
2008-05-27 07:52:58 51°21.114 2°54.479 5.8 344 15.5 101030 98
2008-05-27 07:53:03 51°21.131 2°54.489 6.4 347 15.5 101030 98
2008-05-27 07:53:07 51°21.144 2°54.498 6.3 345 15.5 101030 98
2008-05-27 07:53:12 51°21.16 2°54.509 5.5 345 15.5 101030 98
2008-05-27 07:53:18 51°21.179 2°54.523 5.8 348 15.5 101030 98
2008-05-27 07:53:23 51°21.195 2°54.534 6.8 346 15.6 101040 98
2008-05-27 07:53:28 51°21.211 2°54.546 6.5 346 15.6 101040 98
2008-05-27 07:53:32 51°21.225 2°54.555 6.8 348 15.5 101040 98
2008-05-27 07:53:37 51°21.241 2°54.566 6.9 346 15.5 101040 98
2008-05-27 07:53:43 51°21.261 2°54.579 6.4 281 15.6 101040 98
2008-05-27 07:53:48 51°21.277 2°54.59 5.5 347 15.6 101040 98
2008-05-27 07:53:52 51°21.289 2°54.6 6.5 281 15.6 101030 98
2008-05-27 07:53:58 51°21.309 2°54.614 6.9 346 15.6 101030 98
2008-05-27 07:54:03 51°21.325 2°54.625 5.8 347 15.5 101040 98
2008-05-27 07:54:08 51°21.341 2°54.637 5.6 350 15.5 101040 98
2008-05-27 07:54:12 51°21.354 2°54.646 6.3 278 15.6 101050 98
2008-05-27 07:54:18 51°21.373 2°54.66 6.2 344 15.6 101050 98
2008-05-27 07:54:23 51°21.389 2°54.671 5.3 347 15.5 101040 98
2008-05-27 07:54:28 51°21.405 2°54.682 6 347 15.5 101040 98
2008-05-27 07:54:32 51°21.417 2°54.691 5.5 279 15.6 101040 98
2008-05-27 07:54:38 51°21.436 2°54.704 5.3 347 15.6 101040 98
2008-05-27 07:54:43 51°21.452 2°54.715 5.8 279 15.6 101040 98
2008-05-27 07:54:47 51°21.465 2°54.724 6.6 345 15.6 101040 98
2008-05-27 07:54:52 51°21.48 2°54.735 5.7 281 15.5 101050 98
2008-05-27 07:54:58 51°21.5 2°54.749 6.7 346 15.5 101050 98
2008-05-27 07:55:03 51°21.516 2°54.76 6.5 284 15.5 101050 98
2008-05-27 07:55:08 51°21.532 2°54.771 6.8 344 15.5 101050 98
2008-05-27 07:55:13 51°21.549 2°54.783 5.4 348 15.5 101040 98
2008-05-27 07:55:18 51°21.564 2°54.794 5.2 347 15.5 101040 98
2008-05-27 07:55:23 51°21.58 2°54.806 7 347 15.6 101030 98
2008-05-27 07:55:28 51°21.596 2°54.817 6.5 344 15.6 101030 98
2008-05-27 07:55:32 51°21.609 2°54.826 5.4 347 15.6 101040 99
2008-05-27 07:55:38 51°21.629 2°54.839 6.6 344 15.6 101040 99
2008-05-27 07:55:43 51°21.646 2°54.851 6 284 15.6 101050 99
2008-05-27 07:55:48 51°21.662 2°54.862 5.8 348 15.6 101050 99
2008-05-27 07:55:52 51°21.676 2°54.872 6.7 283 15.6 101030 99
2008-05-27 07:55:58 51°21.696 2°54.884 6 345 15.6 101030 99
2008-05-27 07:56:03 51°21.712 2°54.895 5.9 279 15.6 101040 99
2008-05-27 07:56:08 51°21.729 2°54.906 6.1 346 15.6 101040 99
2008-05-27 07:56:12 51°21.741 2°54.915 7.2 282 15.5 101040 99
2008-05-27 07:56:18 51°21.76 2°54.928 6.5 346 15.5 101040 99
2008-05-27 07:56:23 51°21.776 2°54.939 5.2 346 15.6 101040 99
2008-05-27 07:56:28 51°21.792 2°54.95 6.3 347 15.6 101040 99
2008-05-27 07:56:33 51°21.808 2°54.961 5.5 347 15.6 101050 99
2008-05-27 07:56:38 51°21.824 2°54.973 5.7 345 15.6 101050 99
2008-05-27 07:56:43 51°21.841 2°54.984 5.5 345 15.6 101020 99
2008-05-27 07:56:48 51°21.857 2°54.996 5.3 342 15.6 101020 99
2008-05-27 07:56:53 51°21.873 2°55.008 5.6 277 15.5 101040 99
2008-05-27 07:56:58 51°21.889 2°55.02 6.1 342 15.5 101040 99
2008-05-27 07:57:03 51°21.906 2°55.032 5.1 347 15.5 101070 99
2008-05-27 07:57:07 51°21.918 2°55.041 5.6 347 15.5 101070 99
2008-05-27 07:57:12 51°21.934 2°55.052 5.5 345 15.5 101050 99
2008-05-27 07:57:18 51°21.953 2°55.066 5.3 346 15.5 101050 99
2008-05-27 07:57:23 51°21.97 2°55.077 6.7 345 15.6 101050 99
2008-05-27 07:57:27 51°21.983 2°55.087 5.6 345 15.6 101050 99
2008-05-27 07:57:33 51°22.002 2°55.101 6 282 15.5 101060 99
2008-05-27 07:57:38 51°22.019 2°55.112 6.1 345 15.5 101060 99
2008-05-27 07:57:43 51°22.035 2°55.124 6.4 282 15.5 101050 99
2008-05-27 07:57:48 51°22.052 2°55.136 5.9 344 15.5 101050 99
2008-05-27 07:57:52 51°22.065 2°55.146 6.8 279 15.5 101050 99
2008-05-27 07:57:58 51°22.085 2°55.16 7.1 342 15.5 101050 99
2008-05-27 07:58:03 51°22.101 2°55.173 5.2 285 15.5 101040 99
2008-05-27 07:58:08 51°22.118 2°55.185 6 344 15.5 101040 99
2008-05-27 07:58:12 51°22.13 2°55.195 5.1 347 15.5 101050 99
2008-05-27 07:58:18 51°22.149 2°55.208 5.2 347 15.5 101050 99
2008-05-27 07:58:23 51°22.165 2°55.219 6 345 15.5 101040 99
2008-05-27 07:58:28 51°22.181 2°55.23 5.6 342 15.5 101040 99
2008-05-27 07:58:32 51°22.194 2°55.239 5.5 279 15.5 101050 99
2008-05-27 07:58:38 51°22.213 2°55.253 5.7 344 15.5 101050 99
2008-05-27 07:58:43 51°22.229 2°55.265 5.7 282 15.5 101060 99
2008-05-27 07:58:48 51°22.245 2°55.277 5.9 344 15.5 101060 99
2008-05-27 07:58:52 51°22.258 2°55.286 5.9 279 15.5 101050 99
2008-05-27 07:58:58 51°22.277 2°55.299 6.1 344 15.5 101050 99
2008-05-27 07:59:03 51°22.293 2°55.311 6.2 346 15.5 101050 99
2008-05-27 07:59:08 51°22.309 2°55.322 6.2 345 15.5 101050 99
2008-05-27 07:59:13 51°22.326 2°55.334 5.1 281 15.5 101040 99
2008-05-27 07:59:18 51°22.342 2°55.345 4.9 349 15.5 101040 99
2008-05-27 07:59:23 51°22.357 2°55.356 7 343 15.5 101030 99
2008-05-27 07:59:28 51°22.373 2°55.368 5 349 15.5 101030 99
2008-05-27 07:59:33 51°22.388 2°55.378 6.1 279 15.5 101050 99
2008-05-27 07:59:38 51°22.404 2°55.389 5.5 346 15.5 101050 99
2008-05-27 07:59:43 51°22.419 2°55.4 5.6 279 15.5 101060 99
2008-05-27 07:59:47 51°22.432 2°55.409 5.4 346 15.5 101060 99
2008-05-27 07:59:52 51°22.448 2°55.419 6 279 15.5 101050 99
2008-05-27 07:59:58 51°22.467 2°55.433 6.4 342 15.5 101050 99
2008-05-27 08:00:03 51°22.483 2°55.444 5.7 284 15.5 101040 99
2008-05-27 08:00:08 51°22.499 2°55.455 5.5 344 15.5 101040 99
2008-05-27 08:00:12 51°22.512 2°55.464 5.7 284 15.5 101060 99
2008-05-27 08:00:18 51°22.531 2°55.478 5.8 343 15.5 101060 99
2008-05-27 08:00:23 51°22.547 2°55.489 5.3 343 15.5 101050 99
2008-05-27 08:00:28 51°22.563 2°55.501 5.5 344 15.5 101050 99
2008-05-27 08:00:32 51°22.576 2°55.51 6.7 342 15.5 101050 99
2008-05-27 08:00:38 51°22.596 2°55.524 6.2 345 15.5 101050 99
2008-05-27 08:00:43 51°22.612 2°55.535 5.6 285 15.5 101060 99
2008-05-27 08:00:48 51°22.628 2°55.546 5.4 344 15.5 101060 99
2008-05-27 08:00:52 51°22.641 2°55.554 6.5 278 15.5 101050 99
2008-05-27 08:00:58 51°22.661 2°55.568 5.5 345 15.5 101050 99
2008-05-27 08:01:03 51°22.677 2°55.578 6 343 15.5 101040 99
2008-05-27 08:01:08 51°22.693 2°55.589 4.9 345 15.5 101040 99
2008-05-27 08:01:12 51°22.706 2°55.598 5.9 279 15.5 101050 99
2008-05-27 08:01:18 51°22.725 2°55.61 5.4 344 15.5 101050 99
2008-05-27 08:01:23 51°22.742 2°55.621 6.1 343 15.5 101040 99
2008-05-27 08:01:28 51°22.758 2°55.632 6.2 344 15.5 101040 99
2008-05-27 08:01:33 51°22.773 2°55.644 5.8 284 15.5 101050 99
2008-05-27 08:01:38 51°22.79 2°55.654 5.1 344 15.5 101050 99
2008-05-27 08:01:43 51°22.806 2°55.666 6.4 344 15.5 101050 99
2008-05-27 08:01:48 51°22.822 2°55.676 5.9 345 15.5 101050 99
2008-05-27 08:01:52 51°22.835 2°55.685 6.4 282 15.5 101040 99
2008-05-27 08:01:58 51°22.854 2°55.699 6.4 341 15.5 101040 99
2008-05-27 08:02:03 51°22.871 2°55.71 5.2 281 15.5 101040 99
2008-05-27 08:02:07 51°22.883 2°55.719 5.6 344 15.5 101040 99
2008-05-27 08:02:12 51°22.899 2°55.73 5.5 344 15.5 101040 99
2008-05-27 08:02:18 51°22.918 2°55.743 5.9 342 15.5 101040 99
2008-05-27 08:02:23 51°22.934 2°55.755 5.2 347 15.5 101050 99
2008-05-27 08:02:28 51°22.95 2°55.766 5.3 347 15.5 101050 99
2008-05-27 08:02:32 51°22.962 2°55.775 5.7 285 15.5 101060 99
2008-05-27 08:02:38 51°22.981 2°55.788 5.9 345 15.5 101060 99
2008-05-27 08:02:43 51°22.997 2°55.8 6.2 283 15.5 101060 99
2008-05-27 08:02:48 51°23.013 2°55.812 6.9 343 15.5 101060 99
2008-05-27 08:02:52 51°23.025 2°55.821 5.4 344 15.5 101050 99
2008-05-27 08:02:58 51°23.045 2°55.835 6.7 344 15.5 101050 99
2008-05-27 08:03:03 51°23.061 2°55.846 6.1 278 15.5 101060 99
2008-05-27 08:03:08 51°23.077 2°55.858 6.5 343 15.5 101060 99
2008-05-27 08:03:12 51°23.09 2°55.867 6.5 280 15.5 101050 99
2008-05-27 08:03:18 51°23.109 2°55.88 6.2 346 15.5 101050 99
2008-05-27 08:03:23 51°23.125 2°55.892 6.5 344 15.5 101050 99
2008-05-27 08:03:28 51°23.141 2°55.903 7.2 345 15.5 101050 99
2008-05-27 08:03:32 51°23.154 2°55.912 5.3 346 15.5 101050 99
2008-05-27 08:03:38 51°23.173 2°55.926 5.9 344 15.5 101050 99
2008-05-27 08:03:43 51°23.189 2°55.937 5.7 283 15.5 101050 99
2008-05-27 08:03:48 51°23.205 2°55.949 5.3 344 15.5 101050 99
2008-05-27 08:03:53 51°23.22 2°55.96 5.8 279 15.5 101040 99
2008-05-27 08:03:58 51°23.237 2°55.972 5.7 344 15.5 101040 99
2008-05-27 08:04:03 51°23.253 2°55.983 6.2 343 15.5 101060 99
2008-05-27 08:04:08 51°23.268 2°55.995 5.5 344 15.5 101060 99
2008-05-27 08:04:12 51°23.281 2°56.005 5.5 282 15.5 101070 99
2008-05-27 08:04:18 51°23.301 2°56.019 6.3 344 15.5 101070 99
2008-05-27 08:04:23 51°23.317 2°56.031 5.7 346 15.5 101050 99
2008-05-27 08:04:28 51°23.333 2°56.043 6.1 345 15.5 101050 99
2008-05-27 08:04:32 51°23.346 2°56.052 5.7 345 15.5 101060 99
2008-05-27 08:04:38 51°23.365 2°56.066 5.7 346 15.5 101060 99
2008-05-27 08:04:43 51°23.382 2°56.076 6.3 347 15.5 101060 99
2008-05-27 08:04:48 51°23.398 2°56.088 5.3 345 15.5 101060 99
2008-05-27 08:04:52 51°23.411 2°56.097 5.7 282 15.5 101050 99
2008-05-27 08:04:58 51°23.431 2°56.109 6.5 344 15.5 101050 99
2008-05-27 08:05:03 51°23.447 2°56.12 5.6 279 15.5 101060 99
2008-05-27 08:05:08 51°23.463 2°56.131 6 346 15.5 101060 99
2008-05-27 08:05:12 51°23.476 2°56.139 5.2 345 15.5 101050 99
2008-05-27 08:05:18 51°23.496 2°56.152 5.5 346 15.5 101050 99
2008-05-27 08:05:23 51°23.512 2°56.163 5.7 346 15.5 101050 99
2008-05-27 08:05:28 51°23.528 2°56.174 4.9 347 15.5 101050 99
2008-05-27 08:05:32 51°23.541 2°56.183 7.1 280 15.5 101070 99
2008-05-27 08:05:38 51°23.559 2°56.196 6.7 345 15.5 101070 99
2008-05-27 08:05:43 51°23.575 2°56.206 5.2 346 15.5 101070 99
2008-05-27 08:05:47 51°23.588 2°56.215 5.5 347 15.5 101070 99
2008-05-27 08:05:52 51°23.604 2°56.225 5.7 280 15.5 101070 99
2008-05-27 08:05:58 51°23.623 2°56.238 5.5 346 15.5 101070 99
2008-05-27 08:06:03 51°23.639 2°56.249 4.8 279 15.5 101050 99
2008-05-27 08:06:08 51°23.655 2°56.26 5.1 346 15.5 101050 99
2008-05-27 08:06:13 51°23.671 2°56.27 5.1 278 15.5 101070 99
2008-05-27 08:06:18 51°23.686 2°56.281 5.1 346 15.5 101070 99
2008-05-27 08:06:23 51°23.702 2°56.292 6.2 345 15.5 101070 99
2008-05-27 08:06:27 51°23.715 2°56.301 6.5 345 15.5 101070 99
2008-05-27 08:06:32 51°23.73 2°56.312 4.5 346 15.5 101080 99
2008-05-27 08:06:38 51°23.749 2°56.325 6.2 347 15.5 101080 99
2008-05-27 08:06:43 51°23.765 2°56.336 5.7 278 15.5 101070 99
2008-05-27 08:06:48 51°23.781 2°56.348 5.2 346 15.5 101070 99
2008-05-27 08:06:52 51°23.794 2°56.357 6.2 279 15.5 101060 99
2008-05-27 08:06:58 51°23.814 2°56.37 5.7 347 15.5 101060 99
2008-05-27 08:07:03 51°23.83 2°56.381 6.4 285 15.5 101060 99
2008-05-27 08:07:08 51°23.846 2°56.392 6 348 15.5 101060 99
2008-05-27 08:07:12 51°23.859 2°56.401 5.3 282 15.5 101060 99
2008-05-27 08:07:18 51°23.879 2°56.414 5.2 346 15.5 101060 99
2008-05-27 08:07:23 51°23.895 2°56.425 6.1 347 15.5 101050 99
2008-05-27 08:07:28 51°23.91 2°56.437 6.7 347 15.5 101050 99
2008-05-27 08:07:33 51°23.926 2°56.448 4.5 345 15.5 101050 99
2008-05-27 08:07:38 51°23.942 2°56.459 5.6 346 15.5 101050 99
2008-05-27 08:07:43 51°23.958 2°56.47 5.7 345 15.4 101060 99
2008-05-27 08:07:48 51°23.974 2°56.481 5.7 346 15.4 101060 99
2008-05-27 08:07:52 51°23.987 2°56.49 4.9 277 15.5 101050 99
2008-05-27 08:07:58 51°24.007 2°56.503 5.1 345 15.5 101050 99
2008-05-27 08:08:03 51°24.023 2°56.514 5.2 285 15.5 101070 99
2008-05-27 08:08:08 51°24.039 2°56.524 5.7 342 15.5 101070 99
2008-05-27 08:08:12 51°24.052 2°56.533 5.2 282 15.5 101070 99
2008-05-27 08:08:18 51°24.072 2°56.547 5.5 345 15.5 101070 99
2008-05-27 08:08:23 51°24.087 2°56.557 4 346 15.4 101070 99
2008-05-27 08:08:28 51°24.103 2°56.568 4.8 345 15.4 101070 99
2008-05-27 08:08:33 51°24.12 2°56.578 5 279 15.4 101060 99
2008-05-27 08:08:38 51°24.136 2°56.589 5 346 15.4 101060 99
2008-05-27 08:08:43 51°24.153 2°56.6 5.2 283 15.4 101060 99
2008-05-27 08:08:47 51°24.165 2°56.61 5.5 344 15.4 101060 99
2008-05-27 08:08:52 51°24.182 2°56.621 4.8 345 15.4 101080 99
2008-05-27 08:08:58 51°24.202 2°56.634 4.9 347 15.4 101080 99
2008-05-27 08:09:03 51°24.218 2°56.645 4.8 279 15.4 101060 99
2008-05-27 08:09:08 51°24.234 2°56.656 5.3 344 15.4 101060 99
2008-05-27 08:09:12 51°24.248 2°56.664 5.8 278 15.4 101060 99
2008-05-27 08:09:17 51°24.264 2°56.676 5.7 342 15.4 101060 99
2008-05-27 08:09:23 51°24.284 2°56.689 4.5 345 15.4 101070 99
2008-05-27 08:09:28 51°24.3 2°56.699 5.4 343 15.4 101070 99
2008-05-27 08:09:32 51°24.313 2°56.708 5 277 15.4 101080 99
2008-05-27 08:09:38 51°24.333 2°56.721 5.2 344 15.4 101080 99
2008-05-27 08:09:43 51°24.35 2°56.732 4.7 345 15.4 101060 99
2008-05-27 08:09:48 51°24.366 2°56.743 4.6 346 15.4 101060 99
2008-05-27 08:09:52 51°24.379 2°56.752 5.5 345 15.4 101070 99
2008-05-27 08:09:58 51°24.399 2°56.766 5.8 343 15.4 101070 99
2008-05-27 08:10:03 51°24.415 2°56.778 4.4 346 15.4 101070 99
2008-05-27 08:10:08 51°24.431 2°56.789 4.9 345 15.4 101070 99
2008-05-27 08:10:12 51°24.444 2°56.799 5.8 284 15.4 101080 99
2008-05-27 08:10:18 51°24.464 2°56.812 5.8 347 15.4 101080 99
2008-05-27 08:10:23 51°24.48 2°56.823 4.4 343 15.4 101070 99
2008-05-27 08:10:27 51°24.492 2°56.832 4.4 343 15.4 101070 99
2008-05-27 08:10:32 51°24.508 2°56.843 5 346 15.4 101080 99
2008-05-27 08:10:38 51°24.527 2°56.858 4.3 343 15.4 101080 99
2008-05-27 08:10:43 51°24.543 2°56.87 5.4 346 15.4 101060 99
2008-05-27 08:10:48 51°24.56 2°56.882 4.6 344 15.4 101060 99
2008-05-27 08:10:52 51°24.573 2°56.891 5.5 345 15.4 101080 99
2008-05-27 08:10:58 51°24.592 2°56.906 5.1 343 15.4 101080 99
2008-05-27 08:11:03 51°24.608 2°56.917 5.3 346 15.4 101070 99
2008-05-27 08:11:07 51°24.621 2°56.927 5.3 344 15.4 101070 99
2008-05-27 08:11:12 51°24.638 2°56.938 4.9 345 15.4 101080 99
2008-05-27 08:11:18 51°24.657 2°56.953 5.1 344 15.4 101080 99
2008-05-27 08:11:23 51°24.674 2°56.964 5.7 340 15.4 101080 99
2008-05-27 08:11:28 51°24.69 2°56.976 5 344 15.4 101080 99
2008-05-27 08:11:32 51°24.703 2°56.985 5.5 282 15.4 101080 99
2008-05-27 08:11:37 51°24.719 2°56.997 5.5 344 15.4 101080 99
2008-05-27 08:11:43 51°24.739 2°57.011 4.9 283 15.4 101080 99
2008-05-27 08:11:48 51°24.756 2°57.023 5.5 343 15.4 101080 99
2008-05-27 08:11:52 51°24.769 2°57.032 4.5 278 15.4 101060 99
2008-05-27 08:11:58 51°24.789 2°57.046 4.7 343 15.4 101060 99
2008-05-27 08:12:03 51°24.805 2°57.057 5.3 342 15.4 101070 99
2008-05-27 08:12:08 51°24.821 2°57.068 4.7 342 15.4 101070 99
2008-05-27 08:12:12 51°24.834 2°57.078 5.2 278 15.4 101070 99
2008-05-27 08:12:18 51°24.853 2°57.092 5.4 344 15.4 101070 99
2008-05-27 08:12:23 51°24.869 2°57.103 4.4 347 15.4 101090 99
2008-05-27 08:12:28 51°24.885 2°57.116 4.7 349 15.4 101090 99
2008-05-27 08:12:32 51°24.898 2°57.125 6.1 278 15.4 101060 99
2008-05-27 08:12:38 51°24.916 2°57.139 5.5 343 15.4 101060 99
2008-05-27 08:12:43 51°24.932 2°57.151 5.4 280 15.4 101070 99
2008-05-27 08:12:47 51°24.945 2°57.161 5.4 345 15.4 101070 99
2008-05-27 08:12:53 51°24.964 2°57.175 5.1 281 15.4 101090 99
2008-05-27 08:12:58 51°24.98 2°57.187 4.7 346 15.4 101090 99
2008-05-27 08:13:03 51°24.996 2°57.198 5.5 344 15.4 101050 99
2008-05-27 08:13:08 51°25.012 2°57.21 4.9 347 15.4 101050 99
2008-05-27 08:13:12 51°25.026 2°57.22 6.2 344 15.4 101070 99
2008-05-27 08:13:18 51°25.045 2°57.234 4.7 346 15.4 101070 99
2008-05-27 08:13:23 51°25.061 2°57.246 5.1 340 15.4 101070 99
2008-05-27 08:13:27 51°25.074 2°57.256 4.3 344 15.4 101070 99
2008-05-27 08:13:32 51°25.089 2°57.267 5.5 344 15.4 101060 99
2008-05-27 08:13:38 51°25.108 2°57.282 5.4 343 15.4 101060 99
2008-05-27 08:13:43 51°25.124 2°57.293 5.3 278 15.4 101080 99
2008-05-27 08:13:48 51°25.14 2°57.306 5.3 344 15.4 101080 99
2008-05-27 08:13:52 51°25.153 2°57.315 5 346 15.4 101080 99
2008-05-27 08:13:58 51°25.173 2°57.33 4.8 346 15.4 101080 99
2008-05-27 08:14:03 51°25.188 2°57.342 5.4 285 15.4 101070 99
2008-05-27 08:14:08 51°25.204 2°57.354 5.4 344 15.4 101070 99
2008-05-27 08:14:12 51°25.216 2°57.364 4.9 347 15.4 101070 99
2008-05-27 08:14:18 51°25.236 2°57.378 4.5 349 15.4 101070 99
2008-05-27 08:14:23 51°25.251 2°57.39 5.1 344 15.4 101070 99
2008-05-27 08:14:28 51°25.267 2°57.402 4.8 346 15.4 101070 99
2008-05-27 08:14:32 51°25.28 2°57.412 4.7 281 15.4 101070 99
2008-05-27 08:14:38 51°25.3 2°57.426 4.4 349 15.4 101070 99
2008-05-27 08:14:43 51°25.316 2°57.438 5.9 345 15.4 101080 99
2008-05-27 08:14:47 51°25.329 2°57.448 4.8 347 15.4 101080 99
2008-05-27 08:14:52 51°25.345 2°57.46 5.4 282 15.4 101070 99
2008-05-27 08:14:58 51°25.365 2°57.474 4.8 342 15.4 101070 99
2008-05-27 08:15:03 51°25.381 2°57.486 4.1 279 15.4 101080 99
2008-05-27 08:15:08 51°25.397 2°57.498 4.7 348 15.4 101080 99
2008-05-27 08:15:13 51°25.413 2°57.51 4.9 280 15.4 101070 99
2008-05-27 08:15:18 51°25.429 2°57.521 5.2 345 15.4 101070 99
2008-05-27 08:15:23 51°25.445 2°57.533 4.4 344 15.4 101080 99
2008-05-27 08:15:28 51°25.461 2°57.545 5.7 341 15.4 101080 99
2008-05-27 08:15:32 51°25.475 2°57.555 4.7 343 15.4 101090 99
2008-05-27 08:15:38 51°25.494 2°57.569 5.1 344 15.4 101090 99
2008-05-27 08:15:43 51°25.511 2°57.582 4.7 278 15.4 101070 99
2008-05-27 08:15:47 51°25.524 2°57.591 4.5 341 15.4 101070 99
2008-05-27 08:15:52 51°25.54 2°57.603 5.7 342 15.4 101080 99
2008-05-27 08:15:58 51°25.56 2°57.618 5.4 344 15.4 101080 99
2008-05-27 08:16:03 51°25.576 2°57.63 5.3 280 15.4 101070 99
2008-05-27 08:16:08 51°25.592 2°57.641 6.2 344 15.4 101070 99
2008-05-27 08:16:12 51°25.605 2°57.651 5.6 278 15.4 101080 99
2008-05-27 08:16:18 51°25.625 2°57.665 5.8 344 15.4 101080 99
2008-05-27 08:16:23 51°25.641 2°57.677 4.9 345 15.4 101060 99
2008-05-27 08:16:28 51°25.658 2°57.687 4.9 345 15.4 101060 99
2008-05-27 08:16:32 51°25.671 2°57.697 4.5 280 15.4 101070 99
2008-05-27 08:16:38 51°25.69 2°57.711 4.6 345 15.4 101070 99
2008-05-27 08:16:43 51°25.707 2°57.721 5.1 344 15.4 101070 99
2008-05-27 08:16:48 51°25.723 2°57.732 5.1 342 15.4 101070 99
2008-05-27 08:16:52 51°25.736 2°57.741 4.1 284 15.4 101080 99
2008-05-27 08:16:58 51°25.755 2°57.755 4.9 342 15.4 101080 99
2008-05-27 08:17:03 51°25.771 2°57.766 4.9 278 15.4 101090 99
2008-05-27 08:17:07 51°25.784 2°57.774 5.8 344 15.4 101090 99
2008-05-27 08:17:12 51°25.8 2°57.786 4.3 278 15.4 101070 99
2008-05-27 08:17:18 51°25.82 2°57.799 4.4 346 15.4 101070 99
2008-05-27 08:17:23 51°25.836 2°57.81 5.5 344 15.4 101100 99
2008-05-27 08:17:28 51°25.852 2°57.822 4.9 344 15.4 101100 99
2008-05-27 08:17:32 51°25.865 2°57.831 5.5 281 15.4 101080 99
2008-05-27 08:17:38 51°25.885 2°57.845 5.2 343 15.4 101080 99
2008-05-27 08:17:43 51°25.901 2°57.856 5 342 15.4 101080 99
2008-05-27 08:17:48 51°25.917 2°57.868 5.4 343 15.4 101080 99
2008-05-27 08:17:52 51°25.931 2°57.877 6.1 342 15.4 101080 99
2008-05-27 08:17:58 51°25.95 2°57.89 6.3 343 15.4 101080 99
2008-05-27 08:18:03 51°25.967 2°57.902 5 286 15.4 101060 99
2008-05-27 08:18:08 51°25.983 2°57.913 6.5 340 15.4 101060 99
2008-05-27 08:18:12 51°25.996 2°57.922 4.9 278 15.4 101070 99
2008-05-27 08:18:18 51°26.016 2°57.936 5.2 346 15.4 101070 99
2008-05-27 08:18:23 51°26.032 2°57.947 5.2 341 15.4 101060 99
2008-05-27 08:18:28 51°26.047 2°57.958 4.3 344 15.4 101060 99
2008-05-27 08:18:33 51°26.063 2°57.969 5.9 278 15.4 101080 99
2008-05-27 08:18:38 51°26.079 2°57.98 5.4 342 15.4 101080 99
2008-05-27 08:18:43 51°26.094 2°57.992 5.1 279 15.4 101080 100
2008-05-27 08:18:48 51°26.11 2°58.003 6.3 341 15.4 101080 100
2008-05-27 08:18:53 51°26.127 2°58.015 4.6 278 15.4 101080 100
2008-05-27 08:18:58 51°26.143 2°58.026 5.3 342 15.4 101080 100
2008-05-27 08:19:03 51°26.159 2°58.038 4.8 284 15.4 101060 100
2008-05-27 08:19:08 51°26.176 2°58.049 5.4 343 15.4 101060 100